Retour au catalogue

FENGYUN 1C DEB

ActifPO
NORAD 37925·DEBRIS·🇨🇳 China

Lancé May 10, 1999 depuis Taiyuan Satellite Launch Center

Loading…

Prochains Passages (prochaines 24 heures)

TLE

FraisSource: Space-Track

Époque: Sep 12, 2026, 23:53 UTC

1 37925U 99025EPA 26255.99576329  .00005519  00000-0  62491-3 0  9996
2 37925  99.0603 167.2795 0048691 195.0635 164.9130 14.86064257697491

Suivez FENGYUN 1C DEB en temps réel avec AllMySat

Download on the App Store